�N����,����,�g�[���i���ԁj���x,�g�[�����x,��g�[���i���ցj���x,����
 2003/08/01, 0:00,26,65,25.3,23.2
 2003/08/01, 0:15,26.5,65.5,25.1,23.2
 2003/08/01, 0:30,26.7,64,25,23.3
 2003/08/01, 0:45,26.6,65,25,23.3
 2003/08/01, 1:00,26.6,66,24.9,23.3
 2003/08/01, 1:15,26.5,66.5,24.8,23.4
 2003/08/01, 1:30,26.5,67,24.7,23.4
 2003/08/01, 1:45,26.5,67,24.7,23.4
 2003/08/01, 2:00,26.4,66,24.6,23.4
 2003/08/01, 2:15,26.5,67.5,24.5,23.5
 2003/08/01, 2:30,26.5,68,24.5,23.5
 2003/08/01, 2:45,26.4,68,24.5,23.5
 2003/08/01, 3:00,26.3,67,24.4,23.5
 2003/08/01, 3:15,26.4,68,24.4,23.6
 2003/08/01, 3:30,26.3,68,24.3,23.6
 2003/08/01, 3:45,26.3,68,24.3,23.6
 2003/08/01, 4:00,26.3,68,24.3,23.6
 2003/08/01, 4:15,26.2,68.5,24.3,23.6
 2003/08/01, 4:30,26.2,68,24.2,23.7
 2003/08/01, 4:45,26.1,68.5,24,23.7
 2003/08/01, 5:00,26.1,69,24,23.7
 2003/08/01, 5:15,26.1,69,24,23.7
 2003/08/01, 5:30,26.1,69,24,23.7
 2003/08/01, 5:45,26,69,24,23.8
 2003/08/01, 6:00,26,69,24.1,23.8
 2003/08/01, 6:15,26,69,24.1,23.8
 2003/08/01, 6:30,25.9,69,24.1,23.8
 2003/08/01, 6:45,26.1,69,24.3,23.8
 2003/08/01, 7:00,26.3,69,24.5,23.9
 2003/08/01, 7:15,26.2,69.5,24.5,23.9
 2003/08/01, 7:30,26.3,69,24.5,23.9
 2003/08/01, 7:45,26.5,69,24.5,23.9
 2003/08/01, 8:00,26.6,69,24.6,23.9
 2003/08/01, 8:15,26.6,69,24.7,23.9
 2003/08/01, 8:30,26.7,69,24.8,23.9
 2003/08/01, 8:45,26.8,68.5,24.9,24
 2003/08/01, 9:00,26.8,69,25,24
 2003/08/01, 9:15,27,68,25,24
 2003/08/01, 9:30,27,68,25.2,24
 2003/08/01, 9:45,27.2,68,25.4,24
 2003/08/01,10:00,27.4,68,25.5,24
 2003/08/01,10:15,27.5,67,25.8,24
 2003/08/01,10:30,27.7,67,25.9,24
 2003/08/01,10:45,27.9,67,26,24
 2003/08/01,11:00,28.1,67,26.3,24.1
 2003/08/01,11:15,28.4,67,26.5,24.1
 2003/08/01,11:30,28.5,66,26.6,24.1
 2003/08/01,11:45,28.8,66,26.8,24.1
 2003/08/01,12:00,28.9,66,26.9,24.1
 2003/08/01,12:15,29,66,27,24.1
 2003/08/01,12:30,29.2,65,27,24.1
 2003/08/01,12:45,29.4,65,27.2,24.1
 2003/08/01,13:00,29.7,64,27.3,24.2
 2003/08/01,13:15,29.8,65,27.4,24.2
 2003/08/01,13:30,29.9,64,27.5,24.2
 2003/08/01,13:45,30,64,27.5,24.2
 2003/08/01,14:00,30,64,27.6,24.3
 2003/08/01,14:15,30.1,63,27.6,24.3
 2003/08/01,14:30,30.2,63,27.8,24.3
 2003/08/01,14:45,30.2,63.5,27.9,24.3
 2003/08/01,15:00,30.3,63,27.9,24.3
 2003/08/01,15:15,30.5,63,28,24.3
 2003/08/01,15:30,30.5,63,28,24.4
 2003/08/01,15:45,30.5,63,28,24.4
 2003/08/01,16:00,30.6,63,28,24.4
 2003/08/01,16:15,30.5,63,28,24.5
 2003/08/01,16:30,30.5,62,28.2,24.4
 2003/08/01,16:45,30.5,62,28.1,24.5
 2003/08/01,17:00,30.5,62,28.1,24.5
 2003/08/01,17:15,30.5,61,28.2,24.5
 2003/08/01,17:30,30.5,62,28.2,24.6
 2003/08/01,17:45,30.5,62,28.2,24.6
 2003/08/01,18:00,30.5,61,28.2,24.6
 2003/08/01,18:15,30.4,60.5,28.2,24.6
 2003/08/01,18:30,30.4,61,28.2,24.7
 2003/08/01,18:45,30.4,61.5,28.1,24.7
 2003/08/01,19:00,30.3,62,28.1,24.7
 2003/08/01,19:15,30.3,62,28.1,24.8
 2003/08/01,19:30,30.2,63,28.1,24.8
 2003/08/01,19:45,30.2,63,28,24.8
 2003/08/01,20:00,30.1,63,28,24.8
 2003/08/01,20:15,30.1,63,28,24.9
 2003/08/01,20:30,30.1,63,28,24.9
 2003/08/01,20:45,30.1,64,28,25
 2003/08/01,21:00,30.1,64,27.9,25
 2003/08/01,21:15,29.2,62,28,24
 2003/08/01,21:30,27.8,58,28,23
 2003/08/01,21:45,27.1,56.5,28,23.1
 2003/08/01,22:00,28.2,64,28,23.1
 2003/08/01,22:15,28.2,68,28,23.2
 2003/08/01,22:30,28,68,28,23.3
 2003/08/01,22:45,28.1,68.5,28,23.3
 2003/08/01,23:00,28.5,69,28,23.3
 2003/08/01,23:15,28.1,70,28,23.4
 2003/08/01,23:30,28.3,67,27.9,23.4
 2003/08/01,23:45,28,63.5,27.9,23.5
 2003/08/02, 0:00,26.9,63,27.9,23.5
 2003/08/02, 0:15,26.8,62,27.8,23.6
 2003/08/02, 0:30,26.9,57,27.8,23.6
 2003/08/02, 0:45,26.9,57.5,27.8,23.7
 2003/08/02, 1:00,27.1,60,27.7,23.7
 2003/08/02, 1:15,26.9,57,27.7,23.8
 2003/08/02, 1:30,27,61,27.6,23.8
 2003/08/02, 1:45,27,60.5,27.6,23.9
 2003/08/02, 2:00,27.4,61,27.5,23.9
 2003/08/02, 2:15,27.5,61.5,27.5,24
 2003/08/02, 2:30,27.6,63,27.5,24
 2003/08/02, 2:45,27.7,64,27.5,24
 2003/08/02, 3:00,27.8,65,27.5,24.1
 2003/08/02, 3:15,27.8,65,27.4,24.1
 2003/08/02, 3:30,27.8,65,27.4,24.1
 2003/08/02, 3:45,27.8,65,27.4,24.2
 2003/08/02, 4:00,27.8,66,27.3,24.2
 2003/08/02, 4:15,27.1,60,27.3,24.3
 2003/08/02, 4:30,27.1,61,27.2,24.3
 2003/08/02, 4:45,27,62,27.2,24.4
 2003/08/02, 5:00,27,63,27.2,24.4
 2003/08/02, 5:15,27.3,64.5,27.1,24.4
 2003/08/02, 5:30,27.4,69,27,24.5
 2003/08/02, 5:45,26.5,67,26.9,24.5
 2003/08/02, 6:00,26.9,65,27,24.5
 2003/08/02, 6:15,27.1,65.5,27,24.6
 2003/08/02, 6:30,27.3,66,27,24.6
 2003/08/02, 6:45,27.6,70,26.9,24.6
 2003/08/02, 7:00,27.8,72,27,24.7
 2003/08/02, 7:15,27.8,73,27,24.7
 2003/08/02, 7:30,27.8,74,27,24.8
 2003/08/02, 7:45,27.8,75.5,27,24.8
 2003/08/02, 8:00,27.8,75,27.1,24.8
 2003/08/02, 8:15,28.1,76.5,27.1,24.8
 2003/08/02, 8:30,28,78,27.3,24.8
 2003/08/02, 8:45,28.1,78,27.4,24.9
 2003/08/02, 9:00,28.3,78,27.5,24.9
 2003/08/02, 9:15,28.4,77.5,27.5,24.9
 2003/08/02, 9:30,28.5,77,27.6,25
 2003/08/02, 9:45,28.6,77,27.8,25
 2003/08/02,10:00,28.7,77,27.8,25
 2003/08/02,10:15,28.9,76,28,25
 2003/08/02,10:30,29.1,76,28.1,25.1
 2003/08/02,10:45,29.3,74.5,28.2,25.1
 2003/08/02,11:00,29.5,74,28.4,25.2
 2003/08/02,11:15,29.7,73,28.5,25.2
 2003/08/02,11:30,29.9,71,28.7,25.2
 2003/08/02,11:45,30.1,70.5,28.9,25.2
 2003/08/02,12:00,30.2,70,28.9,25.3
 2003/08/02,12:15,30.2,71,28.9,25.3
 2003/08/02,12:30,30.4,70,28.9,25.4
 2003/08/02,12:45,30.6,69.5,29,25.4
 2003/08/02,13:00,30.8,68,29.1,25.4
 2003/08/02,13:15,31,68,29.2,25.5
 2003/08/02,13:30,31,67,29.2,25.5
 2003/08/02,13:45,31,65.5,29.3,25.5
 2003/08/02,14:00,31.2,65,29.4,25.5
 2003/08/02,14:15,31.1,62.5,29.5,25.6
 2003/08/02,14:30,31.3,65,29.5,25.6
 2003/08/02,14:45,31.4,63,29.6,25.6
 2003/08/02,15:00,31.4,62,29.6,25.7
 2003/08/02,15:15,31.4,59.5,29.8,25.7
 2003/08/02,15:30,31.4,60,29.8,25.7
 2003/08/02,15:45,31.5,59.5,29.8,25.8
 2003/08/02,16:00,31.5,59,29.8,25.9
 2003/08/02,16:15,31.5,59,29.9,25.9
 2003/08/02,16:30,31.7,59,29.9,25.9
 2003/08/02,16:45,31.8,59.5,29.9,25.9
 2003/08/02,17:00,31.7,59,29.9,26
 2003/08/02,17:15,31.8,58.5,29.9,26
 2003/08/02,17:30,31.8,59,29.9,26.1
 2003/08/02,17:45,30.3,56.5,30,26.1
 2003/08/02,18:00,29.5,56,30,26.1
 2003/08/02,18:15,28.5,57.5,29.9,26.2
 2003/08/02,18:30,27.5,59,29.9,26.2
 2003/08/02,18:45,27,59,29.8,26.2
 2003/08/02,19:00,26.6,56,29.8,26.3
 2003/08/02,19:15,26.6,54.5,29.7,26.3
 2003/08/02,19:30,26.5,54,29.7,26.4
 2003/08/02,19:45,25.6,54,29.6,26.4
 2003/08/02,20:00,25.4,55,29.6,26.4
 2003/08/02,20:15,25.1,54.5,29.5,26.5
 2003/08/02,20:30,24.9,55,29.4,26.5
 2003/08/02,20:45,25.2,59.5,29.4,26.5
 2003/08/02,21:00,25.7,65,29.4,26.6
 2003/08/02,21:15,25.9,65.5,29.3,23.7
 2003/08/02,21:30,26,70,29.3,23.8
 2003/08/02,21:45,26,68.5,29.3,23.9
 2003/08/02,22:00,26.2,67,29.2,23.9
 2003/08/02,22:15,25.9,66.5,29.2,24
 2003/08/02,22:30,25.7,65,29.2,24
 2003/08/02,22:45,25.6,66,29.1,24
 2003/08/02,23:00,25.8,65,29.1,24.1
 2003/08/02,23:15,25.8,65,29.1,24.2
 2003/08/02,23:30,25.9,69,29.1,24.2
 2003/08/02,23:45,26.4,66.5,29,24.3
 2003/08/03, 0:00,26.8,64,28.9,24.3
 2003/08/03, 0:15,27.1,65.5,28.9,24.4
 2003/08/03, 0:30,27.3,67,28.8,24.4
 2003/08/03, 0:45,27.5,67.5,28.8,24.5
 2003/08/03, 1:00,27.6,68,28.7,24.6
 2003/08/03, 1:15,27.6,69,28.7,24.6
 2003/08/03, 1:30,27.8,69,28.7,24.7
 2003/08/03, 1:45,27.9,69.5,28.6,24.7
 2003/08/03, 2:00,28,70,28.6,24.8
 2003/08/03, 2:15,28,70,28.5,24.8
 2003/08/03, 2:30,28.1,70,28.5,24.9
 2003/08/03, 2:45,28.2,70,28.5,24.9
 2003/08/03, 3:00,28.3,70,28.4,24.9
 2003/08/03, 3:15,28.3,70,28.4,25
 2003/08/03, 3:30,28.3,70,28.4,25.1
 2003/08/03, 3:45,28.4,70,28.3,25.1
 2003/08/03, 4:00,28.4,70,28.2,25.2
 2003/08/03, 4:15,28.5,70,28.2,25.2
 2003/08/03, 4:30,28.5,71,28.2,25.2
 2003/08/03, 4:45,27.6,62.5,28.1,25.3
 2003/08/03, 5:00,27.6,65,28.1,25.3
 2003/08/03, 5:15,27.8,66,28,25.5
 2003/08/03, 5:30,27.7,65,27.9,25.5
 2003/08/03, 5:45,27.9,67,27.7,25.5
 2003/08/03, 6:00,28.3,69,27.6,25.6
 2003/08/03, 6:15,28.5,69.5,27.6,25.6
 2003/08/03, 6:30,28.5,70,27.7,25.7
 2003/08/03, 6:45,28.7,69.5,27.7,25.7
 2003/08/03, 7:00,28.8,70,27.7,25.7
 2003/08/03, 7:15,28.8,70,27.8,25.7
 2003/08/03, 7:30,28.9,70,27.8,25.8
 2003/08/03, 7:45,29,70,27.8,25.8
 2003/08/03, 8:00,29,70,28,25.9
 2003/08/03, 8:15,29.1,70,28,25.9
 2003/08/03, 8:30,29.4,69,28.1,25.9
 2003/08/03, 8:45,29.5,69,28.1,26
 2003/08/03, 9:00,29.6,66,28.3,26
 2003/08/03, 9:15,29.8,67,28.4,26
 2003/08/03, 9:30,30.2,66,28.5,26
 2003/08/03, 9:45,30.6,64,28.6,26
 2003/08/03,10:00,31,62,28.8,26.1
 2003/08/03,10:15,31,62,29,26.1
 2003/08/03,10:30,31.3,61,29.1,26.1
 2003/08/03,10:45,31,62.5,29.1,26.1
 2003/08/03,11:00,31.1,64,29.2,26.2
 2003/08/03,11:15,31.5,63,29.3,26.2
 2003/08/03,11:30,31.4,63,29.6,26.2
 2003/08/03,11:45,31.4,64.5,29.8,26.3
 2003/08/03,12:00,31.5,64,29.8,26.3
 2003/08/03,12:15,31.5,63,29.9,26.3
 2003/08/03,12:30,31.7,63,30,26.3
 2003/08/03,12:45,32,60.5,30.1,24.9
 2003/08/03,13:00,31.9,62,30.1,23.4
 2003/08/03,13:15,32,63,30.1,23.4
 2003/08/03,13:30,32.1,63,30.2,23.5
 2003/08/03,13:45,32.2,63,30.3,23.5
 2003/08/03,14:00,32.3,63,30.4,23.6
 2003/08/03,14:15,32.5,63,30.5,23.7
 2003/08/03,14:30,32.5,63,30.5,23.7
 2003/08/03,14:45,32.6,63,30.6,23.8
 2003/08/03,15:00,32.7,63,30.6,23.8
 2003/08/03,15:15,32.7,63,30.6,23.9
 2003/08/03,15:30,32.7,63,30.7,24
 2003/08/03,15:45,32.8,63,30.7,24
 2003/08/03,16:00,32.9,62,30.7,24.1
 2003/08/03,16:15,32.8,63,30.7,24.1
 2003/08/03,16:30,32.8,63,30.7,24.2
 2003/08/03,16:45,32.9,63,30.7,24.2
 2003/08/03,17:00,32.9,63,30.7,24.3
 2003/08/03,17:15,32.9,63,30.6,24.4
 2003/08/03,17:30,33,55,30.8,24.4
 2003/08/03,17:45,33,55.5,30.9,24.5
 2003/08/03,18:00,32.4,55,31.3,24.6
 2003/08/03,18:15,31,54.5,30.9,24.5
 2003/08/03,18:30,30.6,57,30.8,24.5
 2003/08/03,18:45,30.6,56.5,30.6,24.6
 2003/08/03,19:00,30.2,55,30.6,24.6
 2003/08/03,19:15,29.7,52.5,30.5,24.7
 2003/08/03,19:30,29.1,53,30.4,24.7
 2003/08/03,19:45,28.5,52,30.3,24.8
 2003/08/03,20:00,27.4,54,30.3,24.8
 2003/08/03,20:15,27.3,53,30.3,24.9
 2003/08/03,20:30,26.9,52,30.3,24.9
 2003/08/03,20:45,26.8,52.5,30.2,25
 2003/08/03,21:00,26.5,55,30.2,25
 2003/08/03,21:15,26.1,54,30.1,25.1
 2003/08/03,21:30,25.7,55,30.1,25.2
 2003/08/03,21:45,26.5,62.5,30.1,25.2
 2003/08/03,22:00,26.9,64,30.1,25.3
 2003/08/03,22:15,27.1,63.5,30,25.4
 2003/08/03,22:30,27.6,56,30,25.4
 2003/08/03,22:45,27.5,53.5,30,25.5
 2003/08/03,23:00,27.4,52,29.9,25.5
 2003/08/03,23:15,27.5,52.5,29.9,25.6
 2003/08/03,23:30,27.7,55,29.9,25.7
 2003/08/03,23:45,28,56,29.9,25.7
 2003/08/04, 0:00,27.6,55,29.7,25.8
 2003/08/04, 0:15,27.3,54.5,29.5,25.9
 2003/08/04, 0:30,27.5,57,29.5,25.9
 2003/08/04, 0:45,27.6,58,29.5,26
 2003/08/04, 1:00,27.6,58,29.4,26
 2003/08/04, 1:15,27.6,59,29.4,26
 2003/08/04, 1:30,27.7,59,29.3,26.1
 2003/08/04, 1:45,27.7,59.5,29.2,26.1
 2003/08/04, 2:00,27.8,60,29.2,26.2
 2003/08/04, 2:15,27.7,60.5,29.1,26.3
 2003/08/04, 2:30,27.8,60,29.1,26.3
 2003/08/04, 2:45,27.8,60.5,29.1,26.4
 2003/08/04, 3:00,27.7,61,29,26.4
 2003/08/04, 3:15,27.6,62.5,29,26.5
 2003/08/04, 3:30,27.7,64,28.9,26.5
 2003/08/04, 3:45,27.9,65,28.9,26.6
 2003/08/04, 4:00,27.8,65,28.9,26.6
 2003/08/04, 4:15,27.7,63,28.8,26.6
 2003/08/04, 4:30,27.6,62,28.6,26.7
 2003/08/04, 4:45,27.6,63,28.7,26.8
 2003/08/04, 5:00,27.6,63,28.7,26.8
 2003/08/04, 5:15,27.6,63,28.5,26.8
 2003/08/04, 5:30,27.6,64,28.5,26.8
 2003/08/04, 5:45,27.6,65.5,28.5,26.9
 2003/08/04, 6:00,27.7,67,28.5,26.9
 2003/08/04, 6:15,27.9,66,28.4,27
 2003/08/04, 6:30,28.3,74,28.2,27
 2003/08/04, 6:45,28.1,78,28.4,27
 2003/08/04, 7:00,28.7,76,28.4,27.1
 2003/08/04, 7:15,29,74,28.4,27.1
 2003/08/04, 7:30,29,75,28.5,27.1
 2003/08/04, 7:45,28.8,78,28.6,27.1
 2003/08/04, 8:00,29,78,28.8,27.2
 2003/08/04, 8:15,29.2,75,28.9,27.2
 2003/08/04, 8:30,29.2,76,29,27.2
 2003/08/04, 8:45,29.2,78.5,29,27.2
 2003/08/04, 9:00,29.4,78,29.1,27.3
 2003/08/04, 9:15,29.5,77.5,29.1,27.3
 2003/08/04, 9:30,29.6,76,29.2,27.3
 2003/08/04, 9:45,29.7,75,29.3,27.4
 2003/08/04,10:00,29.8,74,29.3,27.4
 2003/08/04,10:15,30,73,29.4,27.4
 2003/08/04,10:30,30,73,29.6,27.4
 2003/08/04,10:45,30,73,29.5,27.5
 2003/08/04,11:00,30.3,72,29.6,27.5
 2003/08/04,11:15,30.5,71.5,29.8,27.5
 2003/08/04,11:30,30.6,70,30,27.5
 2003/08/04,11:45,30.8,69.5,30.1,27.5
 2003/08/04,12:00,30.9,69,30.3,27.6
 2003/08/04,12:15,31,68,30.4,27.6
 2003/08/04,12:30,31.2,67,30.5,27.6
 2003/08/04,12:45,31.4,66.5,30.5,27.6
 2003/08/04,13:00,31.5,66,30.7,27.6
 2003/08/04,13:15,31.6,65.5,30.6,27.7
 2003/08/04,13:30,31.9,65,30.7,27.7
 2003/08/04,13:45,32,64.5,30.8,27.7
 2003/08/04,14:00,32,64,30.8,27.8
 2003/08/04,14:15,32.2,64,30.9,27.8
 2003/08/04,14:30,32.3,64,31,27.8
 2003/08/04,14:45,32.5,63,31,27.8
 2003/08/04,15:00,32.5,63,31.1,27.9
 2003/08/04,15:15,32.7,62.5,31.1,27.9
 2003/08/04,15:30,32.7,62,31.1,27.9
 2003/08/04,15:45,32.8,62.5,31.2,27.9
 2003/08/04,16:00,32.9,62,31.2,28
 2003/08/04,16:15,32.8,61,31.2,28
 2003/08/04,16:30,32.9,61,31.2,28
 2003/08/04,16:45,32.9,61,31.2,28
 2003/08/04,17:00,32.9,61,31.2,28
 2003/08/04,17:15,32.8,60.5,31.2,28
 2003/08/04,17:30,32.9,61,31.2,28.1
 2003/08/04,17:45,33,61,31.2,28.1
 2003/08/04,18:00,33,62,31.2,28.2
 2003/08/04,18:15,32.9,61,31.1,28.2
 2003/08/04,18:30,32.8,62,31.1,28.2
 2003/08/04,18:45,32.8,61.5,31,28.2
 2003/08/04,19:00,32.7,62,31,28.2
 2003/08/04,19:15,32.7,62.5,30.9,28.3
 2003/08/04,19:30,32.5,63,30.8,28.3
 2003/08/04,19:45,32.5,63,30.7,28.4
 2003/08/04,20:00,32.5,63,30.7,28.4
 2003/08/04,20:15,32.4,63,30.6,28.4
 2003/08/04,20:30,30.8,60,30.6,28.4
 2003/08/04,20:45,30,57.5,30.6,28.5
 2003/08/04,21:00,29.6,55,30.6,28.5
 2003/08/04,21:15,29.4,55,30.6,28.5
 2003/08/04,21:30,29.9,59,30.6,28.5
 2003/08/04,21:45,29.5,59.5,30.6,28.6
 2003/08/04,22:00,29,58,30.6,28.6
 2003/08/04,22:15,28.8,57.5,30.4,28.6
 2003/08/04,22:30,28.6,57,30.4,28.6
 2003/08/04,22:45,28.2,58,30.4,28.7
 2003/08/04,23:00,28.1,59,30.4,28.7
 2003/08/04,23:15,29,60.5,30.2,28.7
 2003/08/04,23:30,28.6,59,30.2,28.7
 2003/08/04,23:45,28.3,60.5,30.1,28.7
 2003/08/05, 0:00,28.3,62,30,28.8
 2003/08/05, 0:15,28.4,63.5,30,28.8
 2003/08/05, 0:30,27.9,64,29.9,28.8
 2003/08/05, 0:45,27.7,65,29.9,28.8
 2003/08/05, 1:00,27.4,66,29.9,28.9
 2003/08/05, 1:15,27.6,64.5,29.9,28.9
 2003/08/05, 1:30,27.8,58,29.8,28.9
 2003/08/05, 1:45,27.5,55.5,29.8,28.9
 2003/08/05, 2:00,27.5,57,29.7,28.9
 2003/08/05, 2:15,27.8,58.5,29.6,28.9
 2003/08/05, 2:30,27.8,59,29.6,28.9
 2003/08/05, 2:45,27.9,59,29.5,29
 2003/08/05, 3:00,27.9,59,29.4,29
 2003/08/05, 3:15,27.9,60,29.4,29
 2003/08/05, 3:30,27.9,60,29.4,29
 2003/08/05, 3:45,27.9,60,29.3,29
 2003/08/05, 4:00,27.8,60,29.3,29.1
 2003/08/05, 4:15,27.8,60,29.2,29.1
 2003/08/05, 4:30,27.8,61,29.1,29.1
 2003/08/05, 4:45,27.6,59,29.1,29.1
 2003/08/05, 5:00,27.4,60,29.2,29.1
 2003/08/05, 5:15,27.6,61,29.1,29.1
 2003/08/05, 5:30,27.6,61,29,29.1
 2003/08/05, 5:45,28.1,63.5,29,29.1
 2003/08/05, 6:00,28.3,64,29,29.2
 2003/08/05, 6:15,28.5,65,29.1,29.1
 2003/08/05, 6:30,28.7,65,29,29.2
 2003/08/05, 6:45,29,70,29.1,29.2
 2003/08/05, 7:00,29.4,71,29.2,29.2
 2003/08/05, 7:15,29.6,70.5,29.3,29.2
 2003/08/05, 7:30,29.9,73,29.3,29.2
 2003/08/05, 7:45,30,71,29.4,29.2
 2003/08/05, 8:00,30.1,70,29.4,29.2
 2003/08/05, 8:15,30.3,69.5,29.5,29.2
 2003/08/05, 8:30,30.6,69,29.5,29.2
 2003/08/05, 8:45,30.8,68,29.6,29.2
 2003/08/05, 9:00,31,67,29.7,29.2
 2003/08/05, 9:15,30.9,67,29.8,29.2
 2003/08/05, 9:30,30.9,67,29.9,29.2
 2003/08/05, 9:45,31,66.5,29.9,29.2
 2003/08/05,10:00,31,66,30.1,29.2
 2003/08/05,10:15,31.2,65,30.2,29.2
 2003/08/05,10:30,31.5,65,30.4,29.2
 2003/08/05,10:45,31.5,65,30.5,29.3
 2003/08/05,11:00,31.7,64,30.5,29.3
 2003/08/05,11:15,32,63.5,30.7,29.3
 2003/08/05,11:30,32.2,63,30.9,29.3
 2003/08/05,11:45,32.3,63,31,29.3
 2003/08/05,12:00,32.5,61,31.2,29.3
 2003/08/05,12:15,32.7,61,31.2,29.3
 2003/08/05,12:30,32.7,61,31.3,29.3
 2003/08/05,12:45,32.8,60.5,31.4,29.3
 2003/08/05,13:00,33,61,31.4,29.3
 2003/08/05,13:15,33.2,61,31.5,29.3
 2003/08/05,13:30,33.3,60,31.5,29.3
 2003/08/05,13:45,33.5,59.5,31.6,29.4
 2003/08/05,14:00,33.6,60,31.7,29.3
 2003/08/05,14:15,33.6,59.5,31.7,29.4
 2003/08/05,14:30,33.7,60,31.8,29.3
 2003/08/05,14:45,33.7,59.5,31.8,29.4
 2003/08/05,15:00,33.4,60,31.7,29.4
 2003/08/05,15:15,33.3,60.5,31.7,29.4
 2003/08/05,15:30,33.3,61,31.6,29.4
 2003/08/05,15:45,33.2,61.5,31.5,29.4
 2003/08/05,16:00,33.2,63,31.5,29.4
 2003/08/05,16:15,33.1,62,31.4,29.5
 2003/08/05,16:30,33.1,62,31.3,29.5
 2003/08/05,16:45,33.2,61,31.4,29.5
 2003/08/05,17:00,33.1,61,31.4,29.5
 2003/08/05,17:15,33,62.5,31.4,29.5
 2003/08/05,17:30,33.1,62,31.4,29.5
 2003/08/05,17:45,33.1,62,31.3,29.5
 2003/08/05,18:00,33.2,62,31.3,29.5
 2003/08/05,18:15,33.1,62.5,31.3,29.6
 2003/08/05,18:30,33.1,63,31.3,29.6
 2003/08/05,18:45,33,63,31.2,29.6
 2003/08/05,19:00,32.9,63,31,29.6
 2003/08/05,19:15,32.8,63,31,29.6
 2003/08/05,19:30,32.8,63,30.8,29.6
 2003/08/05,19:45,32.7,64,30.8,29.6
 2003/08/05,20:00,32.7,64,30.7,29.7
 2003/08/05,20:15,32.6,64,30.6,29.7
 2003/08/05,20:30,32.5,64,30.6,29.7
 2003/08/05,20:45,32.5,64,30.6,29.7
 2003/08/05,21:00,32.4,64,30.6,29.7
 2003/08/05,21:15,32.4,64,30.5,29.7
 2003/08/05,21:30,32.2,64,30.3,29.7
 2003/08/05,21:45,32.2,64,30.2,29.7
 2003/08/05,22:00,32.1,64,30.1,29.7
 2003/08/05,22:15,30.8,60.5,30.5,29.8
 2003/08/05,22:30,30.2,58,30.5,29.8
 2003/08/05,22:45,28.3,60,30.5,29.8
 2003/08/05,23:00,28.6,68,30.5,29.8
 2003/08/05,23:15,28.6,66,30.5,29.8
 2003/08/05,23:30,28.3,66,30.5,29.8
 2003/08/05,23:45,28.2,66.5,30.5,29.8
 2003/08/06, 0:00,28.2,68,30.3,29.8
 2003/08/06, 0:15,28.1,73.5,30.3,29.8
 2003/08/06, 0:30,28.4,76,30.3,29.8
 2003/08/06, 0:45,28.8,77,30.2,29.8
 2003/08/06, 1:00,29,78,30.2,29.8
 2003/08/06, 1:15,29.1,76.5,30.1,29.8
 2003/08/06, 1:30,28.8,65,30.1,29.8
 2003/08/06, 1:45,28.4,62,30,29.8
 2003/08/06, 2:00,28.2,60,30,29.9
 2003/08/06, 2:15,28.1,62.5,30,29.9
 2003/08/06, 2:30,28.1,66,29.9,29.9
 2003/08/06, 2:45,28.2,64.5,29.9,29.9
 2003/08/06, 3:00,28.3,64,29.9,29.9
 2003/08/06, 3:15,28.3,64,29.8,29.9
 2003/08/06, 3:30,28.3,64,29.7,29.9
 2003/08/06, 3:45,28.3,64,29.7,29.9
 2003/08/06, 4:00,28.3,64,29.6,29.9
 2003/08/06, 4:15,28.3,64,29.6,29.9
 2003/08/06, 4:30,28.5,70,29.4,29.9
 2003/08/06, 4:45,28.2,63,29.4,29.9
 2003/08/06, 5:00,27.8,61,29.3,29.9
 2003/08/06, 5:15,27.5,60.5,29.2,29.9
 2003/08/06, 5:30,27.4,60,29.1,29.9
 2003/08/06, 5:45,27.2,60,29,29.9
 2003/08/06, 6:00,27,60,29,29.9
 2003/08/06, 6:15,27,60,29,29.9
 2003/08/06, 6:30,27.5,64,29,29.9
 2003/08/06, 6:45,28,66.5,29,28.6
 2003/08/06, 7:00,28.7,71,28.9,27.3
 2003/08/06, 7:15,29,72,29,27.3
 2003/08/06, 7:30,29.3,71,29.1,27.3
 2003/08/06, 7:45,29.3,70,29.1,27.4
 2003/08/06, 8:00,29.6,70,29.2,27.4
 2003/08/06, 8:15,29.8,68,29.2,27.5
 2003/08/06, 8:30,30,70,29.3,27.5
 2003/08/06, 8:45,30.1,69,29.4,27.5
 2003/08/06, 9:00,30.4,68,29.4,27.5
 2003/08/06, 9:15,30.4,67,29.5,27.5
 2003/08/06, 9:30,30.4,67,29.6,27.6
 2003/08/06, 9:45,30.5,67,29.8,27.6
 2003/08/06,10:00,30.7,66,30,27.6
 2003/08/06,10:15,30.9,65.5,30.1,27.7
 2003/08/06,10:30,31,65,30.3,27.7
 2003/08/06,10:45,31.4,64,30.5,27.7
 2003/08/06,11:00,31.5,64,30.6,27.7
 2003/08/06,11:15,31.8,62,30.8,27.7
 2003/08/06,11:30,31.9,62,30.8,27.8
 2003/08/06,11:45,32,62,31,27.8
 2003/08/06,12:00,32.1,62,30.9,27.8
 2003/08/06,12:15,32.3,61.5,31,27.9
 2003/08/06,12:30,32.5,59,31.1,27.9
 2003/08/06,12:45,32.8,58.5,31.2,27.9
 2003/08/06,13:00,32.8,59,31.3,27.9
 2003/08/06,13:15,33,58.5,31.5,28
 2003/08/06,13:30,33.3,57,31.6,28
 2003/08/06,13:45,33.3,56.5,31.7,28
 2003/08/06,14:00,33.4,57,31.7,28
 2003/08/06,14:15,33.6,55.5,32.1,28
 2003/08/06,14:30,33.6,55,32.3,28
 2003/08/06,14:45,33.7,53.5,32.2,28.1
 2003/08/06,15:00,33.8,53,32.2,28.1
 2003/08/06,15:15,33.8,54,32,28.1
 2003/08/06,15:30,33.8,53,32,28.2
 2003/08/06,15:45,33.7,54,32,28.2
 2003/08/06,16:00,33.9,51,32.2,28.2
 2003/08/06,16:15,33.8,50.5,32.1,28.2
 2003/08/06,16:30,33.8,52,32,28.3
 2003/08/06,16:45,33.7,53,31.9,28.3
 2003/08/06,17:00,33.6,54,31.9,28.4
 2003/08/06,17:15,33.7,52,32,28.4
 2003/08/06,17:30,33.7,50,32,28.4
 2003/08/06,17:45,33.7,52.5,31.8,28.4
 2003/08/06,18:00,33.5,54,31.7,28.5
 2003/08/06,18:15,33.4,55,31.6,28.5
 2003/08/06,18:30,33.3,55,31.5,28.5
 2003/08/06,18:45,33.3,56,31.5,28.6
 2003/08/06,19:00,33.3,56,31.4,28.6
 2003/08/06,19:15,33,56.5,31.4,28.6
 2003/08/06,19:30,33.1,57,31.2,28.6
 2003/08/06,19:45,33,58,31.2,28.7
 2003/08/06,20:00,33,58,31.1,28.7
 2003/08/06,20:15,33,58.5,31,28.7
 2003/08/06,20:30,32.9,59,31,28.8
 2003/08/06,20:45,32.9,59,31,28.8
 2003/08/06,21:00,32.9,59,31,28.8
 2003/08/06,21:15,32.8,60,31,28.8
 2003/08/06,21:30,32.8,61,31,28.8
 2003/08/06,21:45,32.7,61,30.9,28.9
 2003/08/06,22:00,32.5,62,30.7,28.9
 2003/08/06,22:15,32.6,62,30.7,28.9
 2003/08/06,22:30,32.5,62,30.6,29
 2003/08/06,22:45,31.3,66,30.5,29
 2003/08/06,23:00,31.2,63,30.6,29
 2003/08/06,23:15,31,59.5,30.5,29
 2003/08/06,23:30,30.7,57,30.6,29
 2003/08/06,23:45,29.9,56,30.6,29.1
 2003/08/07, 0:00,28.8,55,30.5,29.1
 2003/08/07, 0:15,29,57,30.5,29.1
 2003/08/07, 0:30,30,60,30.5,29.1
 2003/08/07, 0:45,30.4,56,30.5,29.1
 2003/08/07, 1:00,29.7,52,30.4,29.2
 2003/08/07, 1:15,29.3,50.5,30.3,29.2
 2003/08/07, 1:30,29,50,30.3,29.2
 2003/08/07, 1:45,28.7,50,30.2,29.2
 2003/08/07, 2:00,28.5,49,30.1,29.2
 2003/08/07, 2:15,28.2,49,30.1,29.3
 2003/08/07, 2:30,28,49,30.1,29.3
 2003/08/07, 2:45,27.8,48,30,29.3
 2003/08/07, 3:00,27.6,48,30,29.3
 2003/08/07, 3:15,27.5,48,30,29.3
 2003/08/07, 3:30,27.3,48,29.9,29.3
 2003/08/07, 3:45,27.8,50.5,29.8,29.4
 2003/08/07, 4:00,27.9,52,29.7,29.4
 2003/08/07, 4:15,27.4,50,29.6,29.4
 2003/08/07, 4:30,27.7,51,29.7,29.4
 2003/08/07, 4:45,27.8,53.5,29.6,29.4
 2003/08/07, 5:00,27.9,54,29.5,29.4
 2003/08/07, 5:15,27.9,55,29.4,29.5
 2003/08/07, 5:30,27.9,56,29.4,29.5
 2003/08/07, 5:45,28.1,57.5,29.4,29.5
 2003/08/07, 6:00,28.4,58,29.4,29.5
 2003/08/07, 6:15,28.8,60,29.4,29.5
 2003/08/07, 6:30,29.2,63,29.3,29.5
 2003/08/07, 6:45,29.1,70.5,29.2,29.5
 2003/08/07, 7:00,29.6,70,29.4,29.5
 2003/08/07, 7:15,29.4,73,29.5,29.5
 2003/08/07, 7:30,30,69,29.5,29.5
 2003/08/07, 7:45,29.9,73,29.6,29.5
 2003/08/07, 8:00,29.7,75,29.7,29.5
 2003/08/07, 8:15,29.9,74.5,29.8,29.5
 2003/08/07, 8:30,29.9,76,29.8,29.5
 2003/08/07, 8:45,29.9,75,29.8,29.5
 2003/08/07, 9:00,30.1,74,29.9,29.5
 2003/08/07, 9:15,30.3,74,30,29.5
 2003/08/07, 9:30,30.4,73,30.1,29.5
 2003/08/07, 9:45,30.5,73,30.1,29.5
 2003/08/07,10:00,30.7,72,30.2,29.6
 2003/08/07,10:15,31,70,30.3,29.5
 2003/08/07,10:30,31.1,70,30.5,29.5
 2003/08/07,10:45,31.4,68.5,30.6,29.6
 2003/08/07,11:00,31.5,67,30.8,29.6
 2003/08/07,11:15,31.5,66.5,30.8,29.6
 2003/08/07,11:30,31.6,67,30.8,29.6
 2003/08/07,11:45,31.8,65.5,30.9,29.6
 2003/08/07,12:00,31.9,64,30.9,29.6
 2003/08/07,12:15,31.9,63.5,30.9,29.6
 2003/08/07,12:30,31.9,63,30.9,29.6
 2003/08/07,12:45,32,63.5,30.9,29.6
 2003/08/07,13:00,32.1,64,30.9,29.6
 2003/08/07,13:15,32.2,63,31,29.6
 2003/08/07,13:30,32.3,62,31,29.6
 2003/08/07,13:45,32.3,62,31.1,29.6
 2003/08/07,14:00,32.3,61,31.1,29.6
 2003/08/07,14:15,32.4,61,31.2,29.6
 2003/08/07,14:30,32.4,61,31.2,29.6
 2003/08/07,14:45,32.5,61,31.2,29.6
 2003/08/07,15:00,32.5,61,31.2,29.7
 2003/08/07,15:15,32.5,61,31.2,29.7
 2003/08/07,15:30,32.5,61,31.2,29.7
 2003/08/07,15:45,32.5,61,31.1,29.7
 2003/08/07,16:00,32.5,61,31.1,29.7
 2003/08/07,16:15,32.5,61,31,29.7
 2003/08/07,16:30,32.6,61,31,29.7
 2003/08/07,16:45,32.5,61,31,29.7
 2003/08/07,17:00,32.5,61,30.9,29.7
 2003/08/07,17:15,32.5,61.5,30.9,29.7
 2003/08/07,17:30,32.5,62,30.8,29.7
 2003/08/07,17:45,32.5,62,30.8,29.8
 2003/08/07,18:00,32.5,62,30.7,29.7
 2003/08/07,18:15,32.4,62,30.6,29.8
 2003/08/07,18:30,32.4,62,30.6,29.8
 2003/08/07,18:45,32.3,62,30.6,29.8
 2003/08/07,19:00,32.2,63,30.5,29.8